Regional Weather Roundup
Issued by NWS

Home | Current Version | Previous Version | Text Only | Print | Product List | Glossary On
Versions: 1 2 3 4 5 6 7 8 9 10 11 12 13 14 15 16 17 18 19 20 21 22 23 24 25 26 27 28 29 30 31 32 33 34 35 36 37 38 39 40 41 42 43 44 45 46 47 48 49 50
000
ASUS43 KDMX 050607
RWRIA

WEATHER ROUNDUP FOR IOWA
NATIONAL WEATHER SERVICE DES MOINES IA
100 AM CDT TUE MAY 05 2015

NOTE: "FAIR" INDICATES FEW OR NO CLOUDS BELOW 12,000 FEET WITH NO
SIGNIFICANT WEATHER AND/OR OBSTRUCTIONS TO VISIBILITY.

* - THESE STATIONS ARE NOT NWS STATIONS...THUS NOT UNDER NWS
QUALITY CONTROL.  THEY ALSO DO NOT REPORT WEATHER SUCH
AS PRECIPITATION OR FOG.

IAZ001>003-012>014-020>022-031>034-043>046-050700-
   NORTHWEST IOWA

CITY           SKY/WX    TMP DP  RH WIND       PRES   REMARKS
CARROLL *      CLOUDY    55  55 100 NE8       30.10S
CHEROKEE *     CLOUDY    54  49  85 NE5       30.13S
DENISON *      CLOUDY    55  55 100 E3        30.09S
LE MARS *      PTCLDY    54  45  71 N5        30.14S
ORANGE CITY *  CLEAR     54  37  54 E5        30.14S
SHELDON *      PTCLDY    52  39  62 E6        30.14S
SIOUX CITY     CLOUDY    58  48  69 NE5       30.11F
6HR MIN TEMP:  57; 6HR MAX TEMP:  62;

SPENCER        CLOUDY    52  42  69 NE8       30.15S
6HR MIN TEMP:  52; 6HR MAX TEMP:  67;

STORM LAKE *   CLOUDY    57  50  77 NE9       30.13F
$$

IAZ055>058-069>071-079>083-090>094-050700-
   SOUTHWEST IOWA

CITY           SKY/WX    TMP DP  RH WIND       PRES   REMARKS
ATLANTIC *     CLOUDY    59  59 100 CALM      30.08F FOG
AUDUBON *      CLOUDY    57  54  88 N5        30.10S FOG
CLARINDA *     CLOUDY    63  63 100 SW9G17    30.11F
COUNCIL BLFS * CLOUDY    59  59 100 SE5       30.08F
CRESTON *      CLOUDY    63  63 100 CALM      30.09S FOG
HARLAN  *      CLOUDY    57  57 100 CALM      30.12S
LAMONI         LGT RAIN  64  62  93 SW7       30.08R
6HR MIN TEMP:  63; 6HR MAX TEMP:  71; 6HR PCP:  0.45;

RED OAK *      LGT RAIN  63  63 100 S13       30.08F
SHENANDOAH *   LGT RAIN  63  63 100 SW9       30.10S
$$

IAZ047>049-059>061-072>074-084-050700-
   CENTRAL IOWA

CITY           SKY/WX    TMP DP  RH WIND       PRES   REMARKS
AMES           CLOUDY    61  58  90 E6        30.09S
6HR MIN TEMP:  59; 6HR MAX TEMP:  62; 6HR PCP:  0.02;

ANKENY *       CLOUDY    63  63 100 SE7       30.08S
CHARITON *     LGT RAIN  59  59 100 CALM      30.07R
DES MOINES     CLOUDY    64  61  90 E6        30.07S
6HR MIN TEMP:  64; 6HR MAX TEMP:  67; 6HR PCP:  0.06;

GRINNELL*      LGT RAIN  61  61 100 E14       30.09F
KNOXVILLE *    CLOUDY    63  61  94 S8        30.06R
MARSHALLTOWN   CLOUDY    61  59  93 E9        30.09S
6HR MIN TEMP:  60; 6HR MAX TEMP:  63; 6HR PCP:  0.02;

PELLA *        LGT RAIN  62  62 100 E7        30.07F
PERRY *        RAIN      59  57  94 NE5       30.09F
$$

IAZ004>006-015-016-023>025-035-036-050700-
   NORTH CENTRAL IOWA

CITY           SKY/WX    TMP DP  RH WIND       PRES   REMARKS
ALGONA *       CLOUDY    59  41  51 NE6       30.15S
CLARION *      CLOUDY    59  46  63 E12       30.12S
ESTHERVILLE    CLOUDY    49  36  61 NE7       30.15S
6HR MIN TEMP:  48; 6HR MAX TEMP:  65;

FORT DODGE *   CLOUDY    57  48  72 NE7       30.12F
MASON CITY     CLOUDY    57  43  59 NE8       30.16R
6HR MIN TEMP:  53; 6HR MAX TEMP:  66;

FOREST CITY *  PTCLDY    54  41  62 NE7       30.15S
IOWA FALLS *   DRIZZLE   57  52  82 NE3       30.12S
$$

IAZ007>011-017>019-026>030-037>042-050>054-066-050700-
   NORTHEAST IOWA

CITY           SKY/WX    TMP DP  RH WIND       PRES   REMARKS
CEDAR RAPIDS   RAIN      63  62  97 E8        30.12R FOG
6HR MIN TEMP:  62; 6HR MAX TEMP:  67; 6HR PCP:  0.53;

CHARLES CITY * CLOUDY    59  43  55 NE7       30.14S
CLINTON *      CLOUDY    61  57  88 E14       30.15R THUNDER
DECORAH *      CLOUDY    61  41  48 NE10      30.14S
DUBUQUE        CLOUDY    59  57  93 E10       30.14R FOG
6HR MIN TEMP:  59; 6HR MAX TEMP:  70; 6HR PCP:  0.26;

MONTICELLO *   LGT RAIN  63  63 100 SE6       30.13R
OELWEIN *      CLOUDY    61  59  94 NE8       30.13R
WATERLOO       LGT RAIN  58  56  93 NE5       30.11S
6HR MIN TEMP:  58; 6HR MAX TEMP:  63; 6HR PCP:  0.11;

$$

IAZ064-065-067-068-078-050700-
   EAST CENTRAL IOWA

CITY           SKY/WX    TMP DP  RH WIND       PRES   REMARKS
DAVENPORT      TSTM      62  59  90 E13       30.14R FOG
6HR MIN TEMP:  63; 6HR MAX TEMP:  71; 6HR PCP:  0.36;

IOWA CITY      HVY RAIN  63  62  97 SE6       30.13R FOG
6HR MIN TEMP:  63; 6HR MAX TEMP:  70; 6HR PCP:  1.27;

MT. PLEASANT * HVY RAIN  62  62 100 SW10      30.13R
MUSCATINE *    LGT RAIN  66  64  94 S6        30.12R
QUAD CITIES    LGT RAIN  63  61  93 E12       30.11R FOG
6HR MIN TEMP:  63; 6HR MAX TEMP:  68; 6HR PCP:  0.24;

$$

IAZ062-063-075>077-085>089-095>099-050700-
   SOUTHEAST IOWA

CITY           SKY/WX    TMP DP  RH WIND       PRES   REMARKS
BURLINGTON     LGT RAIN  63  62  97 W5        30.10S
6HR MIN TEMP:  63; 6HR MAX TEMP:  69; 6HR PCP:  0.12;

FAIRFIELD *    RAIN      61  59  94 N8        30.10F
FORT MADISON * LGT RAIN  63  61  94 SW6       30.12R
KEOKUK *       LGT RAIN  64  63  94 W10G18    30.11R
OSKALOOSA *    LGT RAIN  59  57  94 E9        30.08F
CENTERVILLE *  LGT RAIN  59  59 100 E3        30.10R
OTTUMWA        LGT RAIN  60  59  96 NE9       30.08S
6HR MIN TEMP:  60; 6HR MAX TEMP:  69; 6HR PCP:  0.59;

WASHINGTON *   RAIN      64  64 100 W6        30.13R
$$

ABBREVIATIONS USED IN REMARKS
   TC - TEMPERATURES IN CELSIUS
  WCI - WIND CHILL INDEX
   HX - HEAT INDEX
  VSB - VISIBILITY
$$



USA.gov is the U.S. government's official web portal to all federal, state and local government web resources and services.